#timestamp,LO_Frequency,Hit,StdDev 
1686009615.8,286046991.0,N
1686009635.6,286046997.8,N
1686009655.5,286046998.5,N
1686009675.3,286047004.9,N
1686009695.1,286047004.8,N
1686009715.9,286047003.5,N
1686009735.7,286046998.9,N
1686009755.5,286046997.6,N
1686009775.4,286046997.4,N
1686009795.2,286046992.5,N
1686009815.1,286046994.1,N
1686009816.0,286046994.1,N
1686009835.8,286046993.6,N
1686009855.6,286046994.2,N
1686009875.5,286047002.2,N
1686009895.3,286047011.0,N
1686009915.1,286047017.8,Y
1686009935.9,286047028.0,P
1686009955.7,286047030.0,N
1686009975.6,286047028.1,N
1686009995.4,286047023.4,N
1686010015.2,286047024.4,N
1686010035.1,286047033.2,N
1686010036.0,286047033.2,N
1686010055.8,286047032.2,N
1686010075.6,286047029.1,N
1686010095.5,286047026.6,N
1686010115.3,286047023.4,N
1686010135.2,286047017.7,N
1686010155.9,286047018.3,N
1686010175.7,286047017.2,N
1686010195.6,286047016.5,N
1686010215.4,286047018.7,N
1686010235.2,286047017.8,N
1686010255.1,286047027.3,Y
1686010256.0,286047027.3,P
1686010275.8,286047007.7,P
1686010295.7,286047003.6,N
1686010315.5,286047000.1,N
1686010335.3,286047002.2,N
1686010355.2,286047011.9,N
1686010375.0,286046993.0,N
1686010375.9,286046993.0,N
1686010395.8,286046989.7,N
1686010415.6,286046991.2,N
1686010435.5,286046988.3,N
1686010455.3,286046988.4,N
1686010475.2,286046995.9,N
1686010495.0,286046996.8,N
1686010495.9,286046996.8,N
1686010515.8,286046999.3,N
1686010535.6,286047000.4,N
1686010555.5,286047004.9,N
1686010575.3,286047008.9,N
1686010595.2,286047003.5,N
1686010615.0,286047004.6,N
1686010615.9,286047004.6,N
1686010635.7,286047011.9,N
1686010655.6,286047014.4,N
1686010675.4,286047018.1,N
1686010695.3,286047018.0,N
1686010715.1,286047020.1,N
1686010735.9,286047016.4,N
1686010755.7,286047011.3,N
1686010775.5,286047010.3,N
1686010795.4,286047018.0,N
1686010815.2,286047026.8,N
1686010835.0,286047023.8,N
1686010835.9,286047023.8,N
1686010855.8,286047024.2,N
1686010875.6,286047025.2,N
1686010895.5,286047026.7,N
1686010915.3,286047027.6,N
1686010935.1,286047023.7,N
1686010955.9,286047025.0,N
1686010975.7,286047023.5,N
1686010995.5,286047017.3,N
1686011015.4,286047018.8,N
1686011035.2,286047015.6,N
1686011055.1,286047011.8,N
1686011056.0,286047011.8,N
1686011075.8,286047013.5,N
1686011095.6,286047015.7,N
1686011115.5,286047019.8,N
1686011135.3,286047021.1,Y
1686011155.2,286047012.3,P
1686011175.9,286047009.4,P
1686011195.7,286047007.8,N
1686011215.6,286047009.0,N
1686011235.4,286047012.1,Y
1686011255.2,286047001.4,P
1686011275.1,286047004.9,N
1686011276.0,286047004.9,N
1686011295.8,286047004.8,N
1686011315.7,286047001.8,N
1686011335.5,286046999.8,N
1686011355.3,286047001.2,N
1686011375.2,286046996.3,N
1686011395.0,286046991.5,N
1686011395.9,286046991.5,N
1686011415.8,286046989.6,N
1686011435.6,286046989.7,N
1686011455.4,286046992.7,N
1686011475.3,286046993.5,N
1686011495.1,286046997.8,N
1686011515.9,286046999.4,N
1686011535.7,286046995.4,N
1686011555.5,286046994.7,N
1686011575.4,286046994.8,N
1686011595.2,286046991.7,N
1686011615.0,286046989.9,N
1686011615.9,286046989.9,N
1686011635.8,286046978.1,Y
1686011655.6,286046972.1,P
1686011675.5,286046963.4,N
1686011695.3,286046958.6,N
1686011715.1,286046960.7,N
1686011735.9,286046954.6,Y
1686011755.7,286046978.5,P
1686011775.5,286046974.9,P
1686011795.4,286046975.5,P
1686011815.2,286046969.9,Y
1686011835.1,286046993.1,P
1686011836.0,286046993.1,N
1686011855.8,286046990.7,N
1686011875.6,286046993.8,N
1686011895.5,286046995.2,N
1686011915.3,286046992.4,N
1686011935.2,286046993.2,N
1686011955.9,286046993.4,N
1686011975.7,286046995.4,N
1686011995.6,286046991.9,N
1686012015.4,286046994.5,N
1686012035.2,286046997.1,N
1686012055.1,286046996.3,N
1686012056.0,286046996.3,N
1686012075.8,286046992.3,N
1686012095.7,286046989.6,N
1686012115.5,286046989.5,N
1686012135.3,286046988.1,N
1686012155.2,286046994.5,N
1686012175.9,286046998.8,N
1686012195.7,286047002.5,N
1686012215.6,286046996.7,N
1686012235.4,286046994.5,N
1686012255.3,286046990.9,N
1686012275.1,286046986.9,N
1686012276.0,286046986.9,N
1686012295.8,286046989.6,N
1686012315.7,286046991.3,N
1686012335.5,286046988.5,N
1686012355.3,286046990.5,N
1686012375.2,286046990.8,N
1686012395.0,286046990.6,N
1686012395.9,286046990.6,N
1686012415.8,286046988.9,Y
1686012435.6,286047000.4,P
1686012455.4,286047002.2,N
1686012475.3,286047000.8,N
1686012495.1,286046994.2,N
1686012515.8,286046994.5,N
1686012535.7,286046992.6,N
1686012555.5,286046990.1,N
1686012575.4,286046991.5,N
1686012595.2,286046990.4,N
1686012615.0,286046988.6,N
1686012615.9,286046988.6,N
1686012635.8,286046986.9,N
1686012655.6,286046991.2,N
1686012675.4,286046990.8,N
1686012695.3,286046991.5,N
1686012715.1,286046990.8,N
1686012735.9,286046988.9,N
1686012755.7,286046989.3,N
1686012775.5,286046989.0,N
1686012795.4,286046990.4,N
1686012815.2,286046987.8,N
1686012835.1,286046990.0,N
1686012836.0,286046990.0,N
1686012855.8,286046986.9,Y
1686012875.6,286046996.8,P
1686012895.5,286046995.9,N
1686012915.3,286046994.3,N
1686012935.2,286046991.7,Y
1686012955.9,286047002.6,P
1686012975.7,286047004.6,N
1686012995.6,286047015.3,P
1686013015.4,286047020.0,N
1686013035.2,286047016.4,N
1686013055.1,286047013.4,N
1686013056.0,286047013.4,N
1686013075.8,286047015.5,N
1686013095.7,286047014.2,N
1686013115.5,286047016.9,N
1686013135.3,286047017.8,N
1686013155.2,286047015.1,N
1686013175.9,286047017.1,N
1686013195.7,286047016.0,N
